Regional Weather Roundup
Issued by NWS

Home | Current Version | Previous Version | Text Only | Print | Product List | Glossary Off
Versions: 1 2 3 4 5 6 7 8 9 10 11 12 13 14 15 16 17 18 19 20 21 22 23 24 25 26 27 28 29 30 31 32 33 34 35 36 37 38 39 40 41 42 43 44 45 46 47 48 49 50

010
ASUS43 KIND 021059
RWRIN

WEATHER ROUNDUP FOR INDIANA
NATIONAL WEATHER SERVICE INDIANAPOLIS IN
600 AM EST FRI DEC 02 2016

NOTE: "FAIR" INDICATES FEW OR NO CLOUDS BELOW 12,000 FEET WITH NO
SIGNIFICANT WEATHER AND/OR OBSTRUCTIONS TO VISIBILITY.

* - STATION DOES NOT REPORT WEATHER SUCH AS PRECIPITATION OR FOG.

+ - STATION NOT QUALITY CONTROLLED BY THE NATIONAL WEATHER SERVICE.
    USE DATA WITH CAUTION...ESPECIALLY DEWPOINT AND RELATIVE
    HUMIDITY OBSERVATIONS.

INZ001>003-010>013-019-020-021200-
NORTHWEST INDIANA

CITY           SKY/WX    TMP DP  RH WIND       PRES   REMARKS
MONTICELLO +   CLOUDY    35  29  77 W9        30.10R WCI  28

$$

LMZ046-743>745-021200-
SOUTHERN LAKE MICHIGAN

STATION/POSITION TIME  TEMP    WIND        PRES    WAVE
                       AIR SEA DIR/SP/G            HT
                 (UTC) (F)     (DEG/KT/KT) (MB)    (FT)
BURNS HARBOR     1040   39     280/ 18/ 21 1018.3R
MICHIGAN CITY    1030   38     240/ 25/ 27   N/A

$$

INZ004-005-014>016-021>024-021200-
NORTH CENTRAL INDIANA

CITY           SKY/WX    TMP DP  RH WIND       PRES   REMARKS
GOSHEN         CLOUDY    36  31  82 SW13      30.05R
PERU/GRISSOM   CLOUDY    36  32  87 W13       30.07R
SOUTH BEND     LGT RAIN  35  33  92 SW12      30.05R WCI  27

$$

INZ006>009-017-018-025>027-021200-
NORTHEAST INDIANA

CITY           SKY/WX    TMP DP  RH WIND       PRES   REMARKS
ANGOLA *+      CLOUDY    36  34  93 W12       30.01R
FORT WAYNE     CLOUDY    36  31  82 W13       30.07R
KENDALLVILLE + CLOUDY    35  32  88 W12G17    30.03R WCI  27

$$

INZ028-029-035-036-043>045-051>053-021200-
WEST CENTRAL INDIANA

CITY           SKY/WX    TMP DP  RH WIND       PRES   REMARKS
CRAWFORDSVL +  CLOUDY    33  30  87 SW6       30.12R WCI  28
GREENCASTLE +  CLOUDY    34  32  93 W5        30.14R WCI  30
LAFAYETTE      CLOUDY    35  30  82 W9        30.11R WCI  28
TERRE HAUTE    CLOUDY    35  30  82 SW6       30.16R WCI  30

$$

INZ030>032-037>040-046>048-054>057-064-065-021200-
CENTRAL INDIANA

CITY           SKY/WX    TMP DP  RH WIND       PRES   REMARKS
GREENWOOD *+   CLOUDY    36  30  77 W7        30.13S
INDIANAPOLIS   CLOUDY    36  28  73 W9        30.13R
-EAGLE CREEK   CLOUDY    36  28  73 W5        30.12R
KOKOMO +       CLOUDY    36  31  82 W12       30.10R
SHELBYVILLE    CLOUDY    37  28  70 W9        30.12R
ZIONSVILLE +   CLOUDY    34  29  83 W8        30.12R WCI  27

$$

INZ033-034-041-042-049-050-058-059-021200-
EAST CENTRAL INDIANA

CITY           SKY/WX    TMP DP  RH WIND       PRES   REMARKS
MUNCIE         CLOUDY    36  30  79 W10       30.09R

$$

INZ060-061-067>069-081>083-085>088-021200-
SOUTHWEST INDIANA

CITY           SKY/WX    TMP DP  RH WIND       PRES   REMARKS
EVANSVILLE     CLEAR     28  25  88 CALM      30.20R
HUNTINGBURG *+ CLEAR     24  23  96 S3        30.18S FOG

$$

INZ062-063-066-070>080-084-089>092-021200-
SOUTH CENTRAL AND SOUTHEAST INDIANA

CITY           SKY/WX    TMP DP  RH WIND       PRES   REMARKS
BLOOMINGTON    CLOUDY    33  28  81 SW6       30.14R WCI  28
MADISON *+     CLEAR     32  28  86 W3        30.17R
SEYMOUR +      MOCLDY    32  28  86 W6        30.16R WCI  26

$$





USA.gov is the U.S. government's official web portal to all federal, state and local government web resources and services.